Time,TemperatureF,DewpointF,PressureIn,WindDirection,WindDirectionDegrees,WindSpeedMPH,WindSpeedGustMPH,Humidity,HourlyPrecipIn,Conditions,Clouds,dailyrainin,SoftwareType,DateUTC
2013-08-07 00:01:00,70.4,67.3,30.00,SE,141,0.0,0.0,90,0.00,,,0.00,WeatherCatV1.20B785,2013-08-07 04:01:00,
2013-08-07 00:06:00,70.3,66.9,30.00,SE,137,0.0,0.0,89,0.00,,,0.00,WeatherCatV1.20B785,2013-08-07 04:06:00,
2013-08-07 00:11:00,70.3,66.9,30.00,South,186,2.0,2.0,89,0.00,,,0.00,WeatherCatV1.20B785,2013-08-07 04:11:00,
2013-08-07 00:16:00,70.3,66.9,29.99,SSE,158,0.0,2.0,89,0.00,,,0.00,WeatherCatV1.20B785,2013-08-07 04:16:00,
2013-08-07 00:21:00,70.3,66.9,30.00,SE,140,0.0,0.0,89,0.00,,,0.00,WeatherCatV1.20B785,2013-08-07 04:21:00,
2013-08-07 00:26:00,70.2,67.1,29.99,SE,145,1.0,2.0,90,0.00,,,0.00,WeatherCatV1.20B785,2013-08-07 04:26:00,
2013-08-07 00:31:00,70.2,67.1,29.99,SSE,152,0.0,2.0,90,0.00,,,0.00,WeatherCatV1.20B785,2013-08-07 04:31:00,
2013-08-07 00:36:00,70.1,66.7,29.99,SSE,166,0.0,1.0,89,0.00,,,0.00,WeatherCatV1.20B785,2013-08-07 04:36:00,
2013-08-07 00:41:00,70.1,67.0,29.99,SE,139,0.0,0.0,90,0.00,,,0.00,WeatherCatV1.20B785,2013-08-07 04:41:00,
2013-08-07 00:46:00,70.1,67.0,30.00,SE,139,0.0,0.0,90,0.00,,,0.00,WeatherCatV1.20B785,2013-08-07 04:46:00,
2013-08-07 00:51:00,70.0,66.9,29.99,SE,139,0.0,0.0,90,0.00,,,0.00,WeatherCatV1.20B785,2013-08-07 04:51:00,
2013-08-07 00:56:00,70.1,67.0,29.99,SE,139,0.0,1.0,90,0.00,,,0.00,WeatherCatV1.20B785,2013-08-07 04:56:00,
2013-08-07 01:01:00,70.1,67.0,29.99,SE,139,0.0,0.0,90,0.00,,,0.00,WeatherCatV1.20B785,2013-08-07 05:01:00,
2013-08-07 01:06:00,70.2,67.1,29.99,ESE,120,0.0,0.0,90,0.00,,,0.00,WeatherCatV1.20B785,2013-08-07 05:06:00,
2013-08-07 01:11:00,70.2,67.1,29.99,ESE,120,0.0,0.0,90,0.00,,,0.00,WeatherCatV1.20B785,2013-08-07 05:11:00,
2013-08-07 01:16:00,70.2,66.8,29.99,ESE,117,0.0,2.0,89,0.00,,,0.00,WeatherCatV1.20B785,2013-08-07 05:16:00,
2013-08-07 01:21:00,70.1,67.0,29.99,ESE,117,0.0,0.0,90,0.00,,,0.00,WeatherCatV1.20B785,2013-08-07 05:21:00,
2013-08-07 01:26:00,70.1,67.0,29.99,ESE,117,0.0,0.0,90,0.00,,,0.00,WeatherCatV1.20B785,2013-08-07 05:26:00,
2013-08-07 01:31:00,70.1,67.0,29.99,ESE,117,0.0,0.0,90,0.00,,,0.00,WeatherCatV1.20B785,2013-08-07 05:31:00,
2013-08-07 01:36:00,70.0,66.9,29.98,ESE,117,0.0,0.0,90,0.00,,,0.00,WeatherCatV1.20B785,2013-08-07 05:36:00,
2013-08-07 01:41:00,70.0,66.9,29.98,ESE,117,0.0,0.0,90,0.00,,,0.00,WeatherCatV1.20B785,2013-08-07 05:41:00,
2013-08-07 01:46:00,70.0,66.9,29.98,ESE,122,0.0,0.0,90,0.00,,,0.00,WeatherCatV1.20B785,2013-08-07 05:46:00,
2013-08-07 01:51:00,70.0,66.9,29.98,ESE,121,0.0,0.0,90,0.00,,,0.00,WeatherCatV1.20B785,2013-08-07 05:51:00,
2013-08-07 01:56:00,70.0,66.9,29.98,ESE,122,0.0,0.0,90,0.00,,,0.00,WeatherCatV1.20B785,2013-08-07 05:56:00,
2013-08-07 02:01:00,69.9,67.2,29.98,ESE,122,0.0,0.0,91,0.00,,,0.00,WeatherCatV1.20B785,2013-08-07 06:01:00,
2013-08-07 02:06:00,69.9,67.2,29.98,ESE,121,0.0,0.0,91,0.00,,,0.00,WeatherCatV1.20B785,2013-08-07 06:06:00,
2013-08-07 02:11:00,69.9,67.2,29.98,ESE,105,0.0,4.0,91,0.00,,,0.00,WeatherCatV1.20B785,2013-08-07 06:11:00,
2013-08-07 02:16:00,69.9,67.2,29.98,ESE,117,0.0,0.0,91,0.00,,,0.00,WeatherCatV1.20B785,2013-08-07 06:16:00,
2013-08-07 02:21:00,69.8,67.1,29.98,ESE,117,0.0,0.0,91,0.00,,,0.00,WeatherCatV1.20B785,2013-08-07 06:21:00,
2013-08-07 02:26:00,69.8,67.1,29.98,ESE,117,0.0,0.0,91,0.00,,,0.00,WeatherCatV1.20B785,2013-08-07 06:26:00,
2013-08-07 02:31:00,69.8,67.1,29.97,ESE,117,0.0,0.0,91,0.00,,,0.00,WeatherCatV1.20B785,2013-08-07 06:31:00,
2013-08-07 02:36:00,69.7,66.9,29.97,ESE,117,0.0,0.0,91,0.00,,,0.00,WeatherCatV1.20B785,2013-08-07 06:36:00,
2013-08-07 02:41:00,69.7,66.9,29.97,ESE,117,0.0,0.0,91,0.00,,,0.00,WeatherCatV1.20B785,2013-08-07 06:41:00,
2013-08-07 02:46:00,69.6,66.8,29.97,ESE,117,0.0,0.0,91,0.00,,,0.00,WeatherCatV1.20B785,2013-08-07 06:46:00,
2013-08-07 02:51:00,69.5,67.1,29.97,ESE,117,0.0,0.0,92,0.00,,,0.00,WeatherCatV1.20B785,2013-08-07 06:51:00,
2013-08-07 02:56:00,69.4,67.0,29.97,ESE,117,0.0,0.0,92,0.00,,,0.00,WeatherCatV1.20B785,2013-08-07 06:56:00,
2013-08-07 03:01:00,69.3,66.9,29.97,ESE,117,0.0,0.0,92,0.00,,,0.00,WeatherCatV1.20B785,2013-08-07 07:01:00,
2013-08-07 03:06:00,69.3,66.9,29.97,ESE,117,0.0,0.0,92,0.00,,,0.00,WeatherCatV1.20B785,2013-08-07 07:06:00,
2013-08-07 03:11:00,69.5,66.8,29.97,ESE,116,0.0,0.0,91,0.00,,,0.00,WeatherCatV1.20B785,2013-08-07 07:11:00,
2013-08-07 03:16:00,69.6,66.8,29.97,SSE,165,0.0,2.0,91,0.00,,,0.00,WeatherCatV1.20B785,2013-08-07 07:16:00,
2013-08-07 03:21:00,69.9,66.8,29.97,SSE,165,0.0,0.0,90,0.00,,,0.00,WeatherCatV1.20B785,2013-08-07 07:21:00,
2013-08-07 03:26:00,69.9,66.8,29.97,SE,146,0.0,0.0,90,0.00,,,0.00,WeatherCatV1.20B785,2013-08-07 07:26:00,
2013-08-07 03:31:00,69.9,66.8,29.97,SE,145,0.0,0.0,90,0.00,,,0.00,WeatherCatV1.20B785,2013-08-07 07:31:00,
2013-08-07 03:36:00,69.7,66.9,29.97,ESE,108,0.0,0.0,91,0.00,,,0.00,WeatherCatV1.20B785,2013-08-07 07:36:00,
2013-08-07 03:41:00,69.7,66.9,29.96,ESE,107,0.0,0.0,91,0.00,,,0.00,WeatherCatV1.20B785,2013-08-07 07:41:00,
2013-08-07 03:46:00,69.6,66.8,29.96,ESE,107,0.0,0.0,91,0.00,,,0.00,WeatherCatV1.20B785,2013-08-07 07:46:00,
2013-08-07 03:51:00,69.6,66.8,29.96,ESE,108,0.0,0.0,91,0.00,,,0.00,WeatherCatV1.20B785,2013-08-07 07:51:00,
2013-08-07 03:56:00,69.4,66.7,29.96,ESE,108,0.0,0.0,91,0.00,,,0.00,WeatherCatV1.20B785,2013-08-07 07:56:00,
2013-08-07 04:01:00,69.3,66.6,29.96,ESE,108,0.0,0.0,91,0.00,,,0.00,WeatherCatV1.20B785,2013-08-07 08:01:00,
2013-08-07 04:06:00,69.1,66.7,29.97,ESE,108,0.0,0.0,92,0.00,,,0.00,WeatherCatV1.20B785,2013-08-07 08:06:00,
2013-08-07 04:11:00,69.0,66.6,29.97,ESE,105,0.0,0.0,92,0.00,,,0.00,WeatherCatV1.20B785,2013-08-07 08:11:00,
2013-08-07 04:16:00,68.8,66.4,29.97,East,98,0.0,0.0,92,0.00,,,0.00,WeatherCatV1.20B785,2013-08-07 08:16:00,
2013-08-07 04:21:00,68.7,66.6,29.96,East,98,0.0,0.0,93,0.00,,,0.00,WeatherCatV1.20B785,2013-08-07 08:21:00,
2013-08-07 04:26:00,68.7,66.6,29.96,East,98,0.0,0.0,93,0.00,,,0.00,WeatherCatV1.20B785,2013-08-07 08:26:00,
2013-08-07 04:31:00,68.8,66.4,29.96,East,98,0.0,0.0,92,0.00,,,0.00,WeatherCatV1.20B785,2013-08-07 08:31:00,
2013-08-07 04:36:00,69.0,66.6,29.96,ENE,65,0.0,0.0,92,0.00,,,0.00,WeatherCatV1.20B785,2013-08-07 08:36:00,
2013-08-07 04:41:00,69.2,66.4,29.96,ENE,75,1.0,4.0,91,0.00,,,0.00,WeatherCatV1.20B785,2013-08-07 08:41:00,
2013-08-07 04:46:00,69.5,66.8,29.96,ENE,75,0.0,1.0,91,0.00,,,0.00,WeatherCatV1.20B785,2013-08-07 08:46:00,
2013-08-07 04:51:00,69.6,66.8,29.96,ENE,75,0.0,0.0,91,0.00,,,0.00,WeatherCatV1.20B785,2013-08-07 08:51:00,
2013-08-07 04:56:00,69.6,66.5,29.97,ENE,72,0.0,0.0,90,0.00,,,0.00,WeatherCatV1.20B785,2013-08-07 08:56:00,
2013-08-07 05:01:00,69.6,66.8,29.96,ENE,72,0.0,0.0,91,0.00,,,0.00,WeatherCatV1.20B785,2013-08-07 09:01:00,
2013-08-07 05:06:00,69.7,66.6,29.97,East,86,0.0,7.0,90,0.00,,,0.00,WeatherCatV1.20B785,2013-08-07 09:06:00,
2013-08-07 05:11:00,69.8,66.7,29.97,East,86,0.0,1.0,90,0.00,,,0.00,WeatherCatV1.20B785,2013-08-07 09:11:00,
2013-08-07 05:16:00,70.0,66.9,29.97,East,101,0.0,4.0,90,0.00,,,0.00,WeatherCatV1.20B785,2013-08-07 09:16:00,
2013-08-07 05:21:00,70.0,66.9,29.97,East,84,0.0,4.0,90,0.00,,,0.00,WeatherCatV1.20B785,2013-08-07 09:21:00,
2013-08-07 05:26:00,70.1,67.0,29.98,ESE,117,0.0,0.0,90,0.00,,,0.00,WeatherCatV1.20B785,2013-08-07 09:26:00,
2013-08-07 05:31:00,70.0,66.9,29.97,ESE,117,0.0,0.0,90,0.00,,,0.00,WeatherCatV1.20B785,2013-08-07 09:31:00,
2013-08-07 05:36:00,70.0,66.9,29.97,East,79,0.0,0.0,90,0.00,,,0.00,WeatherCatV1.20B785,2013-08-07 09:36:00,
2013-08-07 05:41:00,70.0,67.2,29.97,ESE,104,0.0,0.0,91,0.00,,,0.00,WeatherCatV1.20B785,2013-08-07 09:41:00,
2013-08-07 05:46:00,69.9,67.2,29.97,ESE,107,0.0,0.0,91,0.00,,,0.00,WeatherCatV1.20B785,2013-08-07 09:46:00,
2013-08-07 05:51:00,69.8,67.1,29.97,ESE,107,0.0,0.0,91,0.00,,,0.00,WeatherCatV1.20B785,2013-08-07 09:51:00,
2013-08-07 05:55:00,69.7,66.9,29.97,ESE,107,0.0,0.0,91,0.00,,,0.00,WeatherCatV1.20B785,2013-08-07 09:55:00,
2013-08-07 06:00:00,69.7,66.9,29.97,ESE,108,0.0,0.0,91,0.00,,,0.00,WeatherCatV1.20B785,2013-08-07 10:00:00,
2013-08-07 06:05:00,69.6,67.2,29.98,ESE,107,0.0,0.0,92,0.00,,,0.00,WeatherCatV1.20B785,2013-08-07 10:05:00,
2013-08-07 06:10:00,69.5,67.1,29.97,ESE,108,0.0,0.0,92,0.00,,,0.00,WeatherCatV1.20B785,2013-08-07 10:10:00,
2013-08-07 06:15:00,69.4,67.0,29.97,ESE,107,0.0,0.0,92,0.00,,,0.00,WeatherCatV1.20B785,2013-08-07 10:15:00,
2013-08-07 06:20:00,69.3,66.9,29.97,ESE,107,0.0,0.0,92,0.00,,,0.00,WeatherCatV1.20B785,2013-08-07 10:20:00,
2013-08-07 06:25:00,69.3,67.2,29.97,ESE,107,0.0,0.0,93,0.00,,,0.00,WeatherCatV1.20B785,2013-08-07 10:25:00,
2013-08-07 06:30:00,69.2,67.1,29.97,ESE,108,0.0,0.0,93,0.00,,,0.00,WeatherCatV1.20B785,2013-08-07 10:30:00,
2013-08-07 06:35:00,69.2,67.1,29.97,ESE,107,0.0,0.0,93,0.00,,,0.00,WeatherCatV1.20B785,2013-08-07 10:35:00,
2013-08-07 06:40:00,69.4,67.0,29.97,ESE,122,0.0,0.0,92,0.00,,,0.00,WeatherCatV1.20B785,2013-08-07 10:40:00,
2013-08-07 06:45:00,69.6,67.2,29.97,ESE,122,0.0,0.0,92,0.00,,,0.00,WeatherCatV1.20B785,2013-08-07 10:45:00,
2013-08-07 06:50:00,69.7,67.3,29.98,ESE,119,0.0,0.0,92,0.00,,,0.00,WeatherCatV1.20B785,2013-08-07 10:50:00,
2013-08-07 06:55:00,69.8,67.4,29.97,East,99,0.0,1.0,92,0.00,,,0.00,WeatherCatV1.20B785,2013-08-07 10:55:00,
2013-08-07 07:00:00,69.8,67.4,29.98,East,99,0.0,0.0,92,0.00,,,0.00,WeatherCatV1.20B785,2013-08-07 11:00:00,
2013-08-07 07:05:00,69.8,67.4,29.97,ESE,120,3.0,4.0,92,0.00,,,0.00,WeatherCatV1.20B785,2013-08-07 11:05:00,
2013-08-07 07:10:00,70.0,67.2,29.97,ESE,120,0.0,0.0,91,0.00,,,0.00,WeatherCatV1.20B785,2013-08-07 11:10:00,
2013-08-07 07:15:00,70.1,67.3,29.98,ESE,122,0.0,0.0,91,0.00,,,0.00,WeatherCatV1.20B785,2013-08-07 11:15:00,
2013-08-07 07:20:00,70.1,67.3,29.98,ESE,122,0.0,0.0,91,0.00,,,0.00,WeatherCatV1.20B785,2013-08-07 11:20:00,
2013-08-07 07:25:00,70.2,67.4,29.98,ESE,117,1.0,1.0,91,0.00,,,0.00,WeatherCatV1.20B785,2013-08-07 11:25:00,
2013-08-07 07:30:00,70.3,67.5,29.98,ESE,122,0.0,1.0,91,0.00,,,0.00,WeatherCatV1.20B785,2013-08-07 11:30:00,
2013-08-07 07:35:00,70.3,67.5,29.98,ESE,122,0.0,0.0,91,0.00,,,0.00,WeatherCatV1.20B785,2013-08-07 11:35:00,
2013-08-07 07:40:00,70.5,67.4,29.98,ENE,59,0.0,0.0,90,0.00,,,0.00,WeatherCatV1.20B785,2013-08-07 11:40:00,
2013-08-07 07:45:00,70.5,67.4,29.98,ESE,103,0.0,2.0,90,0.00,,,0.00,WeatherCatV1.20B785,2013-08-07 11:45:00,
2013-08-07 07:50:00,70.7,67.6,29.98,ESE,103,0.0,1.0,90,0.00,,,0.00,WeatherCatV1.20B785,2013-08-07 11:50:00,
2013-08-07 07:55:00,70.7,67.6,29.99,ESE,103,0.0,0.0,90,0.00,,,0.00,WeatherCatV1.20B785,2013-08-07 11:55:00,
2013-08-07 08:00:00,70.8,67.4,29.99,ESE,122,0.0,0.0,89,0.00,,,0.00,WeatherCatV1.20B785,2013-08-07 12:00:00,
2013-08-07 08:05:00,70.9,67.8,29.99,ESE,122,0.0,0.0,90,0.00,,,0.00,WeatherCatV1.20B785,2013-08-07 12:05:00,
2013-08-07 08:10:00,71.0,67.6,29.99,ESE,122,0.0,0.0,89,0.00,,,0.00,WeatherCatV1.20B785,2013-08-07 12:10:00,
2013-08-07 08:15:00,71.1,68.0,29.99,ESE,122,0.0,0.0,90,0.00,,,0.00,WeatherCatV1.20B785,2013-08-07 12:15:00,
2013-08-07 08:20:00,71.2,67.8,29.99,ESE,120,0.0,0.0,89,0.00,,,0.00,WeatherCatV1.20B785,2013-08-07 12:20:00,
2013-08-07 08:25:00,71.3,67.9,29.99,ESE,122,0.0,1.0,89,0.00,,,0.00,WeatherCatV1.20B785,2013-08-07 12:25:00,
2013-08-07 08:30:00,71.5,67.8,30.00,ESE,122,0.0,0.0,88,0.00,,,0.00,WeatherCatV1.20B785,2013-08-07 12:30:00,
2013-08-07 08:35:00,71.7,68.3,29.99,East,97,0.0,0.0,89,0.00,,,0.00,WeatherCatV1.20B785,2013-08-07 12:35:00,
2013-08-07 08:40:00,71.9,68.5,30.00,East,98,0.0,0.0,89,0.00,,,0.00,WeatherCatV1.20B785,2013-08-07 12:40:00,
2013-08-07 08:45:00,72.0,67.9,29.99,ESE,103,0.0,2.0,87,0.00,,,0.00,WeatherCatV1.20B785,2013-08-07 12:45:00,
2013-08-07 08:50:00,72.0,68.2,30.00,SE,135,0.0,0.0,88,0.00,,,0.00,WeatherCatV1.20B785,2013-08-07 12:50:00,
2013-08-07 08:55:00,72.3,68.5,30.00,SE,135,0.0,0.0,88,0.00,,,0.00,WeatherCatV1.20B785,2013-08-07 12:55:00,
2013-08-07 09:00:00,72.4,68.3,29.99,SE,134,0.0,3.0,87,0.00,,,0.00,WeatherCatV1.20B785,2013-08-07 13:00:00,
2013-08-07 09:05:00,72.7,68.6,29.99,ENE,72,0.0,0.0,87,0.00,,,0.00,WeatherCatV1.20B785,2013-08-07 13:05:00,
2013-08-07 09:10:00,72.9,68.8,29.99,ESE,108,0.0,1.0,87,0.00,,,0.00,WeatherCatV1.20B785,2013-08-07 13:10:00,
2013-08-07 09:15:00,73.1,68.7,29.99,SE,124,0.0,2.0,86,0.00,,,0.00,WeatherCatV1.20B785,2013-08-07 13:15:00,
2013-08-07 09:20:00,73.2,68.4,29.99,East,93,0.0,1.0,85,0.00,,,0.00,WeatherCatV1.20B785,2013-08-07 13:20:00,
2013-08-07 09:25:00,73.1,68.3,29.98,SE,127,0.0,1.0,85,0.00,,,0.00,WeatherCatV1.20B785,2013-08-07 13:25:00,
2013-08-07 09:30:00,73.3,68.8,29.99,SE,127,0.0,0.0,86,0.00,,,0.00,WeatherCatV1.20B785,2013-08-07 13:30:00,
2013-08-07 09:35:00,73.6,68.4,29.99,NE,52,0.0,5.0,84,0.00,,,0.00,WeatherCatV1.20B785,2013-08-07 13:35:00,
2013-08-07 09:40:00,73.7,69.2,29.99,NE,54,0.0,0.0,86,0.00,,,0.00,WeatherCatV1.20B785,2013-08-07 13:40:00,
2013-08-07 09:45:00,73.8,69.0,29.99,East,84,0.0,1.0,85,0.00,,,0.00,WeatherCatV1.20B785,2013-08-07 13:45:00,
2013-08-07 09:50:00,73.8,69.0,29.99,East,84,0.0,0.0,85,0.00,,,0.00,WeatherCatV1.20B785,2013-08-07 13:50:00,
2013-08-07 09:55:00,73.7,68.6,29.99,ENE,65,0.0,2.0,84,0.00,,,0.00,WeatherCatV1.20B785,2013-08-07 13:55:00,
2013-08-07 10:00:00,73.9,69.4,29.99,ENE,65,0.0,0.0,86,0.00,,,0.00,WeatherCatV1.20B785,2013-08-07 14:00:00,
2013-08-07 10:05:00,73.9,68.8,30.00,East,94,0.0,0.0,84,0.00,,,0.00,WeatherCatV1.20B785,2013-08-07 14:05:00,
2013-08-07 10:10:00,74.1,69.3,29.99,East,94,0.0,0.0,85,0.00,,,0.00,WeatherCatV1.20B785,2013-08-07 14:10:00,
2013-08-07 10:15:00,74.2,69.0,29.99,East,95,0.0,0.0,84,0.00,,,0.00,WeatherCatV1.20B785,2013-08-07 14:15:00,
2013-08-07 10:20:00,74.1,69.3,29.99,East,95,0.0,0.0,85,0.00,,,0.00,WeatherCatV1.20B785,2013-08-07 14:20:00,
2013-08-07 10:25:00,74.1,69.3,29.99,ESE,107,1.0,1.0,85,0.00,,,0.00,WeatherCatV1.20B785,2013-08-07 14:25:00,
2013-08-07 10:30:00,74.1,69.6,30.00,ESE,107,0.0,0.0,86,0.00,,,0.00,WeatherCatV1.20B785,2013-08-07 14:30:00,
2013-08-07 10:35:00,74.2,69.4,30.00,ESE,107,0.0,0.0,85,0.00,,,0.00,WeatherCatV1.20B785,2013-08-07 14:35:00,
2013-08-07 10:40:00,74.3,69.5,30.00,ESE,107,0.0,0.0,85,0.00,,,0.00,WeatherCatV1.20B785,2013-08-07 14:40:00,
2013-08-07 10:45:00,74.3,69.5,30.00,ESE,107,0.0,0.0,85,0.00,,,0.00,WeatherCatV1.20B785,2013-08-07 14:45:00,
2013-08-07 10:50:00,74.8,69.6,30.00,ESE,107,0.0,0.0,84,0.00,,,0.00,WeatherCatV1.20B785,2013-08-07 14:50:00,
2013-08-07 10:55:00,75.2,69.3,30.00,ENE,76,0.0,2.0,82,0.00,,,0.00,WeatherCatV1.20B785,2013-08-07 14:55:00,
2013-08-07 11:00:00,75.3,69.4,30.00,ENE,60,0.0,1.0,82,0.00,,,0.00,WeatherCatV1.20B785,2013-08-07 15:00:00,
2013-08-07 11:05:00,75.3,69.8,30.00,ENE,60,0.0,0.0,83,0.00,,,0.00,WeatherCatV1.20B785,2013-08-07 15:05:00,
2013-08-07 11:10:00,75.4,69.5,30.00,ENE,64,0.0,0.0,82,0.00,,,0.00,WeatherCatV1.20B785,2013-08-07 15:10:00,
2013-08-07 11:15:00,75.5,70.0,30.00,ENE,65,0.0,0.0,83,0.00,,,0.00,WeatherCatV1.20B785,2013-08-07 15:15:00,
2013-08-07 11:20:00,75.4,69.5,30.00,East,101,0.0,1.0,82,0.00,,,0.00,WeatherCatV1.20B785,2013-08-07 15:20:00,
2013-08-07 11:25:00,75.2,69.3,30.00,ESE,115,0.0,0.0,82,0.00,,,0.00,WeatherCatV1.20B785,2013-08-07 15:25:00,
2013-08-07 11:30:00,75.3,69.4,30.00,ENE,75,0.0,1.0,82,0.00,,,0.00,WeatherCatV1.20B785,2013-08-07 15:30:00,
2013-08-07 11:35:00,75.7,70.2,30.01,ENE,75,0.0,0.0,83,0.00,,,0.00,WeatherCatV1.20B785,2013-08-07 15:35:00,
2013-08-07 11:40:00,75.3,69.4,30.00,ESE,108,0.0,0.0,82,0.00,,,0.00,WeatherCatV1.20B785,2013-08-07 15:40:00,
2013-08-07 11:45:00,75.3,70.1,30.00,ESE,108,0.0,0.0,84,0.00,,,0.00,WeatherCatV1.20B785,2013-08-07 15:45:00,
2013-08-07 11:50:00,75.6,70.1,30.00,ESE,108,0.0,0.0,83,0.00,,,0.00,WeatherCatV1.20B785,2013-08-07 15:50:00,
2013-08-07 11:55:00,75.8,69.9,30.00,ESE,106,1.0,1.0,82,0.00,,,0.00,WeatherCatV1.20B785,2013-08-07 15:55:00,
2013-08-07 12:00:00,76.2,70.3,30.00,SE,130,0.0,0.0,82,0.00,,,0.00,WeatherCatV1.20B785,2013-08-07 16:00:00,
2013-08-07 12:05:00,75.9,70.3,30.00,SE,136,0.0,1.0,83,0.00,,,0.00,WeatherCatV1.20B785,2013-08-07 16:05:00,
2013-08-07 12:10:00,76.1,70.6,30.00,ESE,114,0.0,0.0,83,0.00,,,0.00,WeatherCatV1.20B785,2013-08-07 16:10:00,
2013-08-07 12:15:00,75.8,69.9,30.00,ESE,117,1.0,1.0,82,0.00,,,0.00,WeatherCatV1.20B785,2013-08-07 16:15:00,
2013-08-07 12:20:00,75.4,69.9,30.00,East,79,1.0,4.0,83,0.00,,,0.00,WeatherCatV1.20B785,2013-08-07 16:20:00,
2013-08-07 12:25:00,75.1,69.2,29.99,SSW,205,2.0,5.0,82,0.00,,,0.00,WeatherCatV1.20B785,2013-08-07 16:25:00,
2013-08-07 12:30:00,74.5,68.6,29.99,NW,317,1.0,3.0,82,0.00,,,0.00,WeatherCatV1.20B785,2013-08-07 16:30:00,
2013-08-07 12:35:00,74.5,69.0,29.99,SSE,162,1.0,3.0,83,0.00,,,0.00,WeatherCatV1.20B785,2013-08-07 16:35:00,
2013-08-07 12:40:00,74.5,69.3,30.00,NW,320,1.0,2.0,84,0.00,,,0.00,WeatherCatV1.20B785,2013-08-07 16:40:00,
2013-08-07 12:45:00,74.2,69.0,30.00,SW,219,1.0,3.0,84,0.00,,,0.00,WeatherCatV1.20B785,2013-08-07 16:45:00,
2013-08-07 12:50:00,74.4,69.2,30.00,SSE,161,1.0,2.0,84,0.00,,,0.00,WeatherCatV1.20B785,2013-08-07 16:50:00,
2013-08-07 12:55:00,74.5,69.3,30.00,ESE,112,0.0,3.0,84,0.00,,,0.00,WeatherCatV1.20B785,2013-08-07 16:55:00,
2013-08-07 13:00:00,74.8,69.6,29.99,SE,140,0.0,1.0,84,0.00,,,0.00,WeatherCatV1.20B785,2013-08-07 17:00:00,
2013-08-07 13:05:00,75.1,69.6,29.99,South,172,0.0,1.0,83,0.00,,,0.00,WeatherCatV1.20B785,2013-08-07 17:05:00,
2013-08-07 13:10:00,75.1,69.6,29.99,SSE,160,1.0,2.0,83,0.00,,,0.00,WeatherCatV1.20B785,2013-08-07 17:10:00,
2013-08-07 13:15:00,75.0,69.5,29.99,SE,137,0.0,1.0,83,0.00,,,0.00,WeatherCatV1.20B785,2013-08-07 17:15:00,
2013-08-07 13:20:00,75.0,69.1,29.99,SE,130,0.0,2.0,82,0.00,,,0.00,WeatherCatV1.20B785,2013-08-07 17:20:00,
2013-08-07 13:25:00,74.7,68.8,30.00,East,96,2.0,7.0,82,0.00,,,0.00,WeatherCatV1.20B785,2013-08-07 17:25:00,
2013-08-07 13:30:00,73.9,68.8,30.00,SSE,147,0.0,6.0,84,0.00,,,0.00,WeatherCatV1.20B785,2013-08-07 17:30:00,
2013-08-07 13:35:00,73.4,68.9,30.00,ESE,109,0.0,3.0,86,0.00,,,0.00,WeatherCatV1.20B785,2013-08-07 17:35:00,
2013-08-07 13:40:00,73.0,68.9,30.00,SE,130,0.0,1.0,87,0.00,,,0.00,WeatherCatV1.20B785,2013-08-07 17:40:00,
2013-08-07 13:45:00,72.6,68.8,30.00,ESE,114,0.0,1.0,88,0.00,,,0.00,WeatherCatV1.20B785,2013-08-07 17:45:00,
2013-08-07 13:50:00,72.2,68.8,30.00,SSE,160,0.0,4.0,89,0.00,,,0.01,WeatherCatV1.20B785,2013-08-07 17:50:00,
2013-08-07 13:53:00,71.9,68.8,30.00,SE,126,0.0,1.0,90,0.00,,,0.01,WeatherCatV1.20B785,2013-08-07 17:53:00,
2013-08-07 13:58:00,71.3,68.5,29.99,SE,145,0.0,1.0,91,0.08,,,0.02,WeatherCatV1.20B785,2013-08-07 17:58:00,
2013-08-07 14:03:00,71.1,69.0,30.00,SE,142,0.0,0.0,93,0.11,,,0.03,WeatherCatV1.20B785,2013-08-07 18:03:00,
2013-08-07 14:08:00,70.7,68.6,29.99,ESE,120,0.0,2.0,93,0.17,,,0.05,WeatherCatV1.20B785,2013-08-07 18:08:00,
2013-08-07 14:13:00,70.5,68.7,30.00,ESE,120,0.0,2.0,94,0.10,,,0.05,WeatherCatV1.20B785,2013-08-07 18:13:00,
2013-08-07 14:18:00,70.2,68.7,29.99,SSE,158,1.0,2.0,95,0.20,,,0.07,WeatherCatV1.20B785,2013-08-07 18:18:00,
2013-08-07 14:23:00,70.1,68.6,29.99,SE,139,0.0,1.0,95,0.15,,,0.08,WeatherCatV1.20B785,2013-08-07 18:23:00,
2013-08-07 14:28:00,70.1,68.6,30.00,SE,135,1.0,2.0,95,0.08,,,0.08,WeatherCatV1.20B785,2013-08-07 18:28:00,
2013-08-07 14:33:00,70.1,68.9,30.00,SSE,147,4.0,4.0,96,0.05,,,0.08,WeatherCatV1.20B785,2013-08-07 18:33:00,
2013-08-07 14:38:00,70.1,68.6,30.00,ESE,114,1.0,3.0,95,0.04,,,0.09,WeatherCatV1.20B785,2013-08-07 18:38:00,
2013-08-07 14:43:00,70.2,68.7,29.99,SE,144,0.0,3.0,95,0.04,,,0.09,WeatherCatV1.20B785,2013-08-07 18:43:00,
2013-08-07 14:48:00,70.2,69.0,30.00,SE,134,0.0,2.0,96,0.05,,,0.10,WeatherCatV1.20B785,2013-08-07 18:48:00,
2013-08-07 14:53:00,70.3,69.1,29.99,ESE,105,0.0,1.0,96,0.14,,,0.11,WeatherCatV1.20B785,2013-08-07 18:53:00,
2013-08-07 14:58:00,70.1,68.6,29.99,ESE,103,1.0,2.0,95,0.08,,,0.12,WeatherCatV1.20B785,2013-08-07 18:58:00,
2013-08-07 15:03:00,70.1,68.9,29.99,ESE,104,0.0,0.0,96,0.08,,,0.12,WeatherCatV1.20B785,2013-08-07 19:03:00,
2013-08-07 15:08:00,70.0,68.8,29.99,ESE,105,0.0,0.0,96,0.06,,,0.12,WeatherCatV1.20B785,2013-08-07 19:08:00,
2013-08-07 15:13:00,70.0,68.5,29.98,SE,145,0.0,1.0,95,0.04,,,0.12,WeatherCatV1.20B785,2013-08-07 19:13:00,
2013-08-07 15:18:00,70.2,69.0,29.98,ESE,114,0.0,0.0,96,0.00,,,0.12,WeatherCatV1.20B785,2013-08-07 19:18:00,
2013-08-07 15:23:00,70.4,69.2,29.98,ENE,70,0.0,3.0,96,0.00,,,0.13,WeatherCatV1.20B785,2013-08-07 19:23:00,
2013-08-07 15:28:00,70.6,69.4,29.98,East,93,0.0,1.0,96,0.00,,,0.13,WeatherCatV1.20B785,2013-08-07 19:28:00,
2013-08-07 15:33:00,70.9,69.4,29.98,East,94,0.0,0.0,95,0.00,,,0.13,WeatherCatV1.20B785,2013-08-07 19:33:00,
2013-08-07 15:38:00,70.8,69.3,29.98,SE,131,0.0,0.0,95,0.00,,,0.13,WeatherCatV1.20B785,2013-08-07 19:38:00,
2013-08-07 15:43:00,70.9,69.7,29.98,SE,139,0.0,0.0,96,0.00,,,0.13,WeatherCatV1.20B785,2013-08-07 19:43:00,
2013-08-07 15:48:00,70.6,69.1,29.98,ESE,117,0.0,0.0,95,0.00,,,0.13,WeatherCatV1.20B785,2013-08-07 19:48:00,
2013-08-07 15:53:00,70.7,69.2,29.98,ESE,122,0.0,2.0,95,0.00,,,0.13,WeatherCatV1.20B785,2013-08-07 19:53:00,
2013-08-07 15:58:00,70.8,69.6,29.98,ESE,122,0.0,1.0,96,0.00,,,0.13,WeatherCatV1.20B785,2013-08-07 19:58:00,
2013-08-07 16:03:00,70.7,69.2,29.98,SE,131,0.0,0.0,95,0.00,,,0.13,WeatherCatV1.20B785,2013-08-07 20:03:00,
2013-08-07 16:08:00,70.8,69.3,29.98,SE,132,0.0,0.0,95,0.00,,,0.13,WeatherCatV1.20B785,2013-08-07 20:08:00,
2013-08-07 16:13:00,70.7,69.5,29.98,SE,131,0.0,0.0,96,0.00,,,0.13,WeatherCatV1.20B785,2013-08-07 20:13:00,
2013-08-07 16:18:00,70.9,69.7,29.98,SE,131,0.0,0.0,96,0.00,,,0.13,WeatherCatV1.20B785,2013-08-07 20:18:00,
2013-08-07 16:23:00,71.0,69.5,29.98,SE,131,0.0,0.0,95,0.00,,,0.13,WeatherCatV1.20B785,2013-08-07 20:23:00,
2013-08-07 16:28:00,70.9,69.4,29.98,SE,131,0.0,0.0,95,0.00,,,0.13,WeatherCatV1.20B785,2013-08-07 20:28:00,
2013-08-07 16:33:00,70.8,69.0,29.98,SE,127,0.0,0.0,94,0.00,,,0.13,WeatherCatV1.20B785,2013-08-07 20:33:00,
2013-08-07 16:38:00,70.9,69.4,29.98,SE,127,0.0,1.0,95,0.00,,,0.13,WeatherCatV1.20B785,2013-08-07 20:38:00,
2013-08-07 16:43:00,70.9,69.7,29.98,SE,127,0.0,0.0,96,0.00,,,0.14,WeatherCatV1.20B785,2013-08-07 20:43:00,
2013-08-07 16:48:00,70.8,69.3,29.99,SE,127,0.0,0.0,95,0.00,,,0.14,WeatherCatV1.20B785,2013-08-07 20:48:00,
2013-08-07 16:53:00,70.8,69.3,29.98,SE,130,0.0,0.0,95,0.00,,,0.14,WeatherCatV1.20B785,2013-08-07 20:53:00,
2013-08-07 16:58:00,70.8,69.6,29.99,SE,130,0.0,0.0,96,0.00,,,0.14,WeatherCatV1.20B785,2013-08-07 20:58:00,
2013-08-07 17:03:00,70.6,69.1,29.98,SE,130,0.0,0.0,95,0.00,,,0.14,WeatherCatV1.20B785,2013-08-07 21:03:00,
2013-08-07 17:08:00,70.4,68.6,29.98,SE,130,0.0,0.0,94,0.00,,,0.14,WeatherCatV1.20B785,2013-08-07 21:08:00,
2013-08-07 17:13:00,70.5,69.0,29.97,SE,130,0.0,0.0,95,0.00,,,0.14,WeatherCatV1.20B785,2013-08-07 21:13:00,
2013-08-07 17:18:00,70.7,69.5,29.97,ESE,113,0.0,0.0,96,0.00,,,0.14,WeatherCatV1.20B785,2013-08-07 21:18:00,
2013-08-07 17:23:00,70.7,69.5,29.97,ESE,113,0.0,0.0,96,0.00,,,0.14,WeatherCatV1.20B785,2013-08-07 21:23:00,
2013-08-07 17:28:00,70.8,69.3,29.97,ESE,113,0.0,0.0,95,0.00,,,0.14,WeatherCatV1.20B785,2013-08-07 21:28:00,
2013-08-07 17:33:00,71.0,69.5,29.97,SE,124,1.0,2.0,95,0.00,,,0.14,WeatherCatV1.20B785,2013-08-07 21:33:00,
2013-08-07 17:38:00,71.1,69.6,29.97,ESE,121,0.0,1.0,95,0.00,,,0.14,WeatherCatV1.20B785,2013-08-07 21:38:00,
2013-08-07 17:43:00,71.3,69.8,29.97,South,174,0.0,1.0,95,0.00,,,0.14,WeatherCatV1.20B785,2013-08-07 21:43:00,
2013-08-07 17:48:00,71.3,69.2,29.97,SE,136,1.0,3.0,93,0.00,,,0.14,WeatherCatV1.20B785,2013-08-07 21:48:00,
2013-08-07 17:53:00,71.5,69.7,29.97,SE,131,0.0,1.0,94,0.00,,,0.14,WeatherCatV1.20B785,2013-08-07 21:53:00,
2013-08-07 17:58:00,71.5,69.7,29.97,SE,138,1.0,2.0,94,0.00,,,0.14,WeatherCatV1.20B785,2013-08-07 21:58:00,
2013-08-07 18:03:00,71.3,69.2,29.97,SE,136,0.0,4.0,93,0.00,,,0.14,WeatherCatV1.20B785,2013-08-07 22:03:00,
2013-08-07 18:08:00,71.1,69.0,29.97,WNW,291,1.0,1.0,93,0.00,,,0.14,WeatherCatV1.20B785,2013-08-07 22:08:00,
2013-08-07 18:13:00,71.0,68.9,29.97,SW,218,0.0,2.0,93,0.00,,,0.14,WeatherCatV1.20B785,2013-08-07 22:13:00,
2013-08-07 18:18:00,70.9,68.8,29.97,ESE,117,0.0,1.0,93,0.00,,,0.14,WeatherCatV1.20B785,2013-08-07 22:18:00,
2013-08-07 18:23:00,70.9,68.8,29.97,SE,134,1.0,2.0,93,0.00,,,0.14,WeatherCatV1.20B785,2013-08-07 22:23:00,
2013-08-07 18:28:00,70.7,68.2,29.97,ENE,74,2.0,2.0,92,0.00,,,0.14,WeatherCatV1.20B785,2013-08-07 22:28:00,
2013-08-07 18:33:00,70.8,68.7,29.97,SSE,156,0.0,2.0,93,0.00,,,0.14,WeatherCatV1.20B785,2013-08-07 22:33:00,
2013-08-07 18:38:00,70.6,68.2,29.97,SE,134,0.0,1.0,92,0.00,,,0.14,WeatherCatV1.20B785,2013-08-07 22:38:00,
2013-08-07 18:43:00,70.6,68.5,29.97,SE,124,1.0,2.0,93,0.00,,,0.14,WeatherCatV1.20B785,2013-08-07 22:43:00,
2013-08-07 18:48:00,70.6,68.2,29.97,SSW,201,0.0,3.0,92,0.00,,,0.14,WeatherCatV1.20B785,2013-08-07 22:48:00,
2013-08-07 18:53:00,70.6,68.2,29.97,SE,134,0.0,0.0,92,0.00,,,0.14,WeatherCatV1.20B785,2013-08-07 22:53:00,
2013-08-07 18:58:00,70.5,68.4,29.96,SE,135,0.0,1.0,93,0.00,,,0.14,WeatherCatV1.20B785,2013-08-07 22:58:00,
2013-08-07 19:03:00,70.5,68.1,29.96,SSE,153,0.0,0.0,92,0.00,,,0.14,WeatherCatV1.20B785,2013-08-07 23:03:00,
2013-08-07 19:08:00,70.4,68.3,29.96,SSE,161,0.0,0.0,93,0.00,,,0.14,WeatherCatV1.20B785,2013-08-07 23:08:00,
2013-08-07 19:13:00,70.4,68.0,29.97,SE,145,1.0,1.0,92,0.00,,,0.14,WeatherCatV1.20B785,2013-08-07 23:13:00,
2013-08-07 19:18:00,70.3,67.9,29.97,SE,145,0.0,0.0,92,0.00,,,0.14,WeatherCatV1.20B785,2013-08-07 23:18:00,
2013-08-07 19:23:00,70.3,67.9,29.97,SE,145,0.0,0.0,92,0.00,,,0.14,WeatherCatV1.20B785,2013-08-07 23:23:00,
2013-08-07 19:28:00,70.4,68.3,29.97,ESE,117,0.0,0.0,93,0.00,,,0.14,WeatherCatV1.20B785,2013-08-07 23:28:00,
2013-08-07 19:33:00,70.4,68.0,29.97,ESE,118,1.0,1.0,92,0.00,,,0.14,WeatherCatV1.20B785,2013-08-07 23:33:00,
2013-08-07 19:38:00,70.4,68.0,29.97,ESE,120,0.0,0.0,92,0.00,,,0.14,WeatherCatV1.20B785,2013-08-07 23:38:00,
2013-08-07 19:43:00,70.4,68.0,29.97,ESE,120,0.0,1.0,92,0.00,,,0.14,WeatherCatV1.20B785,2013-08-07 23:43:00,
2013-08-07 19:48:00,70.3,67.9,29.96,ESE,117,0.0,1.0,92,0.00,,,0.14,WeatherCatV1.20B785,2013-08-07 23:48:00,
2013-08-07 19:53:00,70.3,67.9,29.97,ESE,120,0.0,1.0,92,0.00,,,0.14,WeatherCatV1.20B785,2013-08-07 23:53:00,
2013-08-07 19:58:00,70.2,67.8,29.96,SE,133,0.0,0.0,92,0.00,,,0.14,WeatherCatV1.20B785,2013-08-07 23:58:00,
2013-08-07 20:03:00,70.2,67.8,29.97,SSE,162,0.0,2.0,92,0.00,,,0.14,WeatherCatV1.20B785,2013-08-08 00:03:00,
2013-08-07 20:08:00,70.2,67.8,29.97,ESE,117,0.0,0.0,92,0.00,,,0.14,WeatherCatV1.20B785,2013-08-08 00:08:00,
2013-08-07 20:13:00,70.2,67.8,29.97,SSE,149,0.0,1.0,92,0.00,,,0.14,WeatherCatV1.20B785,2013-08-08 00:13:00,
2013-08-07 20:18:00,70.1,67.7,29.97,SE,127,1.0,1.0,92,0.00,,,0.14,WeatherCatV1.20B785,2013-08-08 00:18:00,
2013-08-07 20:23:00,70.1,67.7,29.97,SE,142,0.0,2.0,92,0.00,,,0.14,WeatherCatV1.20B785,2013-08-08 00:23:00,
2013-08-07 20:28:00,70.1,67.7,29.97,South,186,0.0,2.0,92,0.00,,,0.14,WeatherCatV1.20B785,2013-08-08 00:28:00,
2013-08-07 20:33:00,70.1,67.7,29.97,SSE,150,1.0,1.0,92,0.00,,,0.14,WeatherCatV1.20B785,2013-08-08 00:33:00,
2013-08-07 20:38:00,70.1,67.3,29.97,SE,145,2.0,2.0,91,0.00,,,0.14,WeatherCatV1.20B785,2013-08-08 00:38:00,
2013-08-07 20:43:00,70.1,67.3,29.97,SSW,199,2.0,2.0,91,0.00,,,0.14,WeatherCatV1.20B785,2013-08-08 00:43:00,
2013-08-07 20:48:00,70.1,67.3,29.97,SSE,147,1.0,2.0,91,0.00,,,0.14,WeatherCatV1.20B785,2013-08-08 00:48:00,
2013-08-07 20:53:00,70.0,67.2,29.97,SE,146,0.0,3.0,91,0.00,,,0.14,WeatherCatV1.20B785,2013-08-08 00:53:00,
2013-08-07 20:58:00,70.1,67.3,29.97,ESE,110,0.0,1.0,91,0.00,,,0.14,WeatherCatV1.20B785,2013-08-08 00:58:00,
2013-08-07 21:03:00,70.0,67.2,29.97,SSE,166,0.0,2.0,91,0.00,,,0.14,WeatherCatV1.20B785,2013-08-08 01:03:00,
2013-08-07 21:08:00,69.9,67.2,29.97,SE,139,0.0,1.0,91,0.00,,,0.14,WeatherCatV1.20B785,2013-08-08 01:08:00,
2013-08-07 21:13:00,69.8,67.4,29.97,SE,134,0.0,0.0,92,0.00,,,0.14,WeatherCatV1.20B785,2013-08-08 01:13:00,
2013-08-07 21:18:00,69.8,67.4,29.97,ESE,110,0.0,2.0,92,0.00,,,0.14,WeatherCatV1.20B785,2013-08-08 01:18:00,
2013-08-07 21:23:00,69.8,67.4,29.97,SSE,162,0.0,0.0,92,0.00,,,0.14,WeatherCatV1.20B785,2013-08-08 01:23:00,
2013-08-07 21:28:00,70.0,67.6,29.97,SE,146,0.0,1.0,92,0.00,,,0.14,WeatherCatV1.20B785,2013-08-08 01:28:00,
2013-08-07 21:33:00,69.9,67.5,29.97,SE,146,0.0,1.0,92,0.00,,,0.14,WeatherCatV1.20B785,2013-08-08 01:33:00,
2013-08-07 21:38:00,69.9,67.5,29.97,SSE,148,0.0,0.0,92,0.00,,,0.14,WeatherCatV1.20B785,2013-08-08 01:38:00,
2013-08-07 21:43:00,69.9,67.5,29.97,SE,134,0.0,2.0,92,0.00,,,0.14,WeatherCatV1.20B785,2013-08-08 01:43:00,
2013-08-07 21:48:00,70.0,67.6,29.98,South,169,0.0,2.0,92,0.00,,,0.14,WeatherCatV1.20B785,2013-08-08 01:48:00,
2013-08-07 21:53:00,70.0,67.6,29.98,SE,142,0.0,2.0,92,0.00,,,0.14,WeatherCatV1.20B785,2013-08-08 01:53:00,
2013-08-07 21:58:00,70.0,67.2,29.98,ESE,117,1.0,3.0,91,0.00,,,0.14,WeatherCatV1.20B785,2013-08-08 01:58:00,
2013-08-07 22:03:00,70.1,67.7,29.98,SE,135,0.0,3.0,92,0.00,,,0.14,WeatherCatV1.20B785,2013-08-08 02:03:00,
2013-08-07 22:08:00,70.0,67.6,29.98,SE,134,0.0,0.0,92,0.00,,,0.14,WeatherCatV1.20B785,2013-08-08 02:08:00,
2013-08-07 22:13:00,69.9,67.5,29.99,SE,135,0.0,1.0,92,0.00,,,0.14,WeatherCatV1.20B785,2013-08-08 02:13:00,
2013-08-07 22:18:00,69.9,67.5,29.99,East,100,0.0,1.0,92,0.00,,,0.14,WeatherCatV1.20B785,2013-08-08 02:18:00,
2013-08-07 22:23:00,69.8,67.4,29.99,East,101,0.0,1.0,92,0.00,,,0.14,WeatherCatV1.20B785,2013-08-08 02:23:00,
2013-08-07 22:28:00,69.8,67.4,30.00,ESE,115,0.0,1.0,92,0.00,,,0.14,WeatherCatV1.20B785,2013-08-08 02:28:00,
2013-08-07 22:33:00,69.8,67.4,30.00,ESE,114,0.0,0.0,92,0.00,,,0.14,WeatherCatV1.20B785,2013-08-08 02:33:00,
2013-08-07 22:38:00,69.7,67.3,29.99,ESE,115,0.0,1.0,92,0.00,,,0.14,WeatherCatV1.20B785,2013-08-08 02:38:00,
2013-08-07 22:43:00,69.7,67.6,30.00,ESE,115,0.0,1.0,93,0.00,,,0.14,WeatherCatV1.20B785,2013-08-08 02:43:00,
2013-08-07 22:48:00,69.7,67.6,30.00,ESE,109,0.0,1.0,93,0.00,,,0.14,WeatherCatV1.20B785,2013-08-08 02:48:00,
2013-08-07 22:53:00,69.7,67.6,30.00,ESE,113,1.0,1.0,93,0.00,,,0.14,WeatherCatV1.20B785,2013-08-08 02:53:00,
2013-08-07 22:58:00,69.6,67.5,30.00,ESE,113,1.0,1.0,93,0.00,,,0.14,WeatherCatV1.20B785,2013-08-08 02:58:00,
2013-08-07 23:03:00,69.7,67.6,30.00,SE,130,0.0,0.0,93,0.00,,,0.14,WeatherCatV1.20B785,2013-08-08 03:03:00,
2013-08-07 23:08:00,69.6,67.5,30.00,ESE,120,0.0,4.0,93,0.00,,,0.14,WeatherCatV1.20B785,2013-08-08 03:08:00,
2013-08-07 23:14:00,69.7,67.6,30.00,ESE,122,0.0,1.0,93,0.00,,,0.14,WeatherCatV1.20B785,2013-08-08 03:14:00,
2013-08-07 23:19:00,69.7,67.6,30.00,ESE,122,0.0,0.0,93,0.00,,,0.14,WeatherCatV1.20B785,2013-08-08 03:19:00,
2013-08-07 23:24:00,69.6,67.5,30.00,ESE,116,0.0,0.0,93,0.00,,,0.14,WeatherCatV1.20B785,2013-08-08 03:24:00,
2013-08-07 23:29:00,69.6,67.5,30.00,ESE,116,0.0,1.0,93,0.00,,,0.14,WeatherCatV1.20B785,2013-08-08 03:29:00,
2013-08-07 23:34:00,69.7,67.6,30.00,ESE,106,0.0,1.0,93,0.00,,,0.14,WeatherCatV1.20B785,2013-08-08 03:34:00,
2013-08-07 23:39:00,69.6,67.5,30.00,ESE,106,0.0,0.0,93,0.00,,,0.14,WeatherCatV1.20B785,2013-08-08 03:39:00,
2013-08-07 23:44:00,69.6,67.5,30.00,ESE,115,0.0,0.0,93,0.00,,,0.14,WeatherCatV1.20B785,2013-08-08 03:44:00,
2013-08-07 23:49:00,69.6,67.5,30.00,ESE,115,0.0,1.0,93,0.00,,,0.14,WeatherCatV1.20B785,2013-08-08 03:49:00,
2013-08-07 23:54:00,69.5,67.4,30.00,ESE,115,0.0,1.0,93,0.00,,,0.14,WeatherCatV1.20B785,2013-08-08 03:54:00,
2013-08-07 23:59:00,69.4,67.6,30.00,ESE,115,0.0,0.0,94,0.00,,,0.14,WeatherCatV1.20B785,2013-08-08 03:59:00,